User: anonymous   Login
Location: Unspecified
(0.0000°N, 0.0000°E)
Time: 09:13:15
(UTC+00:00)
Language:

Hispasat 1B - Orbit

View from above orbital plane
View from above orbital plane
View from above satellite
View from above satellite

Ground track
Ground track

The orbit data is extracted from the following two-line orbital elements,

1 22723U 93048A   18017.59907083 +.00000013 +00000-0 +00000-0 0  9992
2 22723 011.1066 035.3954 0012321 243.1431 301.7127 00.99718498089192
Epoch (UTC): 17 January 2018 14:22:39
Eccentricity: 0.0012321
inclination: 11.1066°
perigee height: 35890 km
apogee height: 35994 km
right ascension of ascending node: 35.3954°
argument of perigee: 243.1431°
revolutions per day: 0.99718498
mean anomaly at epoch: 301.7127°
orbit number at epoch: 8919

The dashed part of the orbit path shows where the satellite is in the earth's shadow,  

DLR